Wind_Speed
27 26 26 26 26 27 28 29 30 30 31 32 34 35 36 36 36 35 33 34 35 36 37 38 39 41 42 42 42 42 42 43 43 42 38 35 35 35 35 36 37 37 38 40 43 49 55 62 69 78 88 96 102 107 110 112 112 113 114 113 111 109 109 108 107 106 106 107 106 104 102 100 98 94 90 90 92 91 88 86 82 80 81 81 80
29 28 28 28 29 29 29 30 31 31 31 32 32 32 32 34 37 38 37 36 37 37 38 38 40 41 41 41 41 41 41 43 44 43 39 36 35 34 33 34 34 35 36 37 38 40 44 50 56 64 74 84 92 99 104 108 109 111 113 114 113 111 110 109 108 106 106 107 107 107 107 106 103 100 98 96 96 96 93 91 88 84 82 83 83
30 29 29 30 30 31 31 32 33 33 33 33 33 33 31 32 35 37 37 37 38 38 38 39 40 40 39 39 38 38 39 41 42 41 39 37 35 34 33 32 33 33 34 35 36 37 38 42 46 52 61 70 80 88 96 102 105 107 109 112 114 113 111 110 108 107 106 106 106 106 107 108 106 104 102 100 100 100 100 98 96 92 87 85 85
29 30 30 29 30 30 30 31 31 33 33 33 34 34 33 31 32 33 34 34 37 38 39 39 38 37 36 35 34 36 38 38 38 38 38 37 35 34 33 32 32 33 33 33 34 35 36 38 40 44 50 58 66 75 84 92 98 102 105 107 110 112 113 111 110 108 107 106 105 105 105 105 105 105 103 101 100 100 101 100 98 94 90 86 85
29 30 29 29 29 29 29 30 30 31 32 32 32 32 31 31 31 31 31 31 33 36 37 37 36 34 33 31 32 35 36 35 35 36 36 36 35 34 32 32 32 33 34 33 33 34 35 36 38 41 45 49 55 62 71 80 88 94 99 102 105 108 111 112 112 110 109 108 107 105 104 103 103 102 101 99 97 97 97 97 96 93 90 87 85
30 30 29 29 29 29 30 30 29 30 31 31 30 30 28 28 28 30 31 30 30 31 35 36 36 34 31 30 32 34 34 33 33 34 35 35 34 33 32 32 32 33 33 33 33 33 34 36 38 41 43 44 46 51 59 67 76 84 90 95 99 103 106 109 111 111 111 110 109 108 107 106 104 102 101 99 97 96 95 95 94 93 91 88 86
30 30 30 30 31 31 30 28 26 25 26 27 28 28 27 25 25 26 29 30 28 29 32 34 33 31 30 31 33 34 33 32 31 32 33 34 33 32 31 31 31 33 33 32 33 34 35 36 38 40 42 42 43 46 49 55 63 71 79 86 92 96 100 104 107 109 110 111 111 110 109 109 109 107 105 103 101 100 98 96 95 93 92 90 88
30 30 31 31 31 31 30 28 25 23 21 21 22 23 24 23 22 22 26 28 27 27 29 29 29 30 30 32 34 33 32 31 30 30 32 32 32 31 31 30 31 32 32 33 34 35 35 36 37 38 40 41 42 44 45 47 52 59 66 74 81 88 93 98 102 105 107 109 111 111 111 111 111 111 109 107 105 103 101 99 98 96 94 93 91
30 29 29 29 29 30 29 27 24 22 19 16 14 15 17 19 18 19 22 24 25 25 25 25 27 29 30 31 32 32 31 29 29 28 29 30 30 29 30 30 30 31 32 33 34 34 33 33 35 36 37 39 41 42 44 45 46 50 54 61 68 76 82 89 95 100 103 105 107 109 111 111 111 111 111 110 107 104 102 101 100 99 97 96 93
28 27 27 27 27 27 26 24 22 20 17 13 9 7 8 11 14 15 17 19 21 21 22 23 24 26 27 27 28 29 28 28 28 27 27 28 27 27 28 29 29 31 32 33 32 31 30 31 32 34 35 37 38 40 42 43 44 46 48 52 58 64 71 78 84 91 97 101 104 106 108 109 110 110 110 109 108 108 106 104 102 101 100 98 95
27 26 26 26 25 24 23 22 21 19 17 13 9 4 1 4 7 10 12 15 17 17 18 19 20 22 24 25 26 27 28 28 28 27 27 27 26 27 27 28 28 30 32 32 30 29 29 29 30 32 33 34 36 38 39 41 42 43 45 48 52 56 61 67 74 80 87 94 99 102 104 106 106 107 107 108 108 109 109 108 106 104 102 101 99
26 26 25 25 24 23 22 21 20 19 18 16 14 11 8 7 6 7 9 12 13 14 15 16 17 19 21 23 25 26 27 27 27 27 27 26 26 26 26 27 28 30 31 30 29 29 29 29 29 30 31 32 33 34 36 37 39 41 43 46 50 53 56 60 65 71 77 83 90 95 99 102 103 103 104 105 106 107 108 108 109 107 105 103 101
25 25 25 24 24 24 23 22 20 19 18 17 16 14 12 10 8 7 7 8 9 11 12 14 15 17 18 20 22 23 24 25 25 25 25 25 25 25 25 26 28 29 30 30 29 29 30 29 29 29 30 30 30 31 32 33 34 36 39 42 47 50 53 56 59 63 68 74 80 85 90 95 98 99 100 100 102 104 105 105 106 106 105 103 100
25 25 24 24 24 23 23 22 21 19 18 17 15 13 11 9 7 5 4 4 6 7 9 11 12 14 16 18 19 20 21 22 22 22 22 23 24 24 24 25 27 29 30 30 29 30 30 30 29 29 29 29 29 28 28 29 30 31 33 37 41 44 47 51 55 58 62 67 71 76 81 85 89 92 95 96 98 99 100 101 101 101 101 101 100
25 24 23 23 23 22 22 21 20 19 18 16 15 13 11 9 6 4 2 1 3 5 7 9 11 12 14 16 17 18 18 19 19 20 20 21 22 22 22 23 25 27 30 30 30 30 30 30 30 30 30 29 29 28 27 27 28 28 29 32 35 37 39 42 47 53 58 62 65 69 72 76 80 84 87 89 91 93 94 94 96 98 99 99 100
23 23 23 23 22 21 21 20 19 18 17 16 15 13 12 10 8 6 4 3 2 3 5 7 8 10 12 14 15 16 17 17 18 19 20 21 21 22 21 22 23 26 28 30 31 31 31 31 31 31 31 31 31 30 29 28 28 27 26 28 30 31 32 35 39 44 51 57 62 65 67 69 72 75 79 80 83 86 89 89 90 92 94 96 97
23 23 23 23 23 21 20 19 18 18 18 17 16 14 13 11 10 8 7 5 4 4 4 5 7 8 10 12 13 14 16 17 19 20 21 22 22 23 22 22 22 24 26 29 31 31 32 32 32 33 33 33 33 32 31 30 29 28 26 26 26 27 29 32 34 36 41 49 58 63 63 62 63 65 68 71 72 75 80 84 86 88 89 90 91
24 24 24 24 23 22 21 21 21 22 21 20 19 18 16 15 14 12 11 9 8 6 5 5 5 6 7 9 11 12 14 15 16 18 20 20 21 22 23 22 23 24 26 28 30 31 32 33 34 34 34 33 33 33 32 31 30 30 28 27 26 26 28 31 33 33 35 39 49 60 64 60 57 57 58 61 63 65 67 69 74 80 83 83 83
25 25 25 24 24 24 25 25 25 25 24 24 23 22 20 19 18 16 15 14 13 11 10 8 7 6 5 5 6 8 9 11 12 13 14 15 16 17 19 20 22 23 25 27 29 30 32 33 34 35 34 33 33 34 34 33 32 31 30 29 28 27 28 31 32 33 35 35 39 51 62 65 60 55 53 53 56 59 62 62 62 66 71 74 74
26 26 25 25 26 26 26 26 26 25 25 24 23 22 21 20 19 18 17 17 16 14 13 12 10 9 8 6 5 4 4 5 6 7 8 9 10 11 13 15 17 19 22 24 26 28 30 31 33 34 34 33 33 34 34 33 33 32 32 31 30 30 31 32 31 32 35 38 37 41 51 62 65 62 57 54 52 53 58 62 62 61 63 66 69
26 25 25 25 25 25 25 25 25 25 24 23 23 22 20 19 19 19 19 18 18 17 15 13 11 10 9 8 6 5 4 4 3 2 2 3 4 5 7 9 11 13 15 18 21 23 26 28 30 31 32 33 33 34 34 34 34 34 34 33 32 33 34 34 33 33 34 38 40 41 43 49 57 61 61 59 56 53 53 58 62 64 64 65 67
25 25 25 24 24 24 24 24 24 24 24 23 22 21 20 19 19 20 21 21 21 20 18 15 12 11 9 8 7 6 5 4 4 3 3 3 2 2 3 4 5 7 9 11 14 17 20 22 25 28 30 32 33 34 34 35 36 35 35 34 35 36 36 35 36 37 36 37 39 43 44 45 47 51 55 57 59 59 57 57 61 65 66 65 67
25 24 24 23 24 24 24 24 24 23 23 22 22 21 20 19 20 21 22 23 22 21 19 16 15 12 10 8 7 7 6 6 5 5 4 4 4 4 5 5 6 8 9 10 12 14 16 18 20 23 26 29 32 34 35 36 37 37 36 36 37 38 38 38 38 39 39 39 39 40 43 46 47 48 49 51 55 59 61 61 62 65 67 66 65
24 24 23 23 23 23 24 24 23 22 22 21 21 20 19 19 20 22 23 23 22 19 18 17 16 15 12 9 7 6 7 7 6 5 4 4 4 5 6 7 8 10 11 12 13 14 15 17 19 22 24 26 29 31 33 35 36 37 37 38 40 41 40 40 40 41 41 42 41 40 41 43 46 48 50 51 53 56 58 61 62 65 67 67 66
23 22 22 22 22 23 23 23 22 21 21 21 20 19 19 20 21 23 24 23 21 19 17 17 17 16 15 12 9 7 6 5 5 4 4 4 5 7 9 10 11 11 12 13 15 15 16 17 19 21 24 26 26 27 27 27 28 29 31 32 35 38 40 41 42 43 43 42 42 43 42 43 44 46 49 52 54 55 57 58 60 62 64 67 69
21 21 21 21 22 22 22 22 22 22 22 21 21 21 22 22 23 23 23 22 21 19 18 17 18 18 17 14 11 8 7 5 4 5 5 7 9 10 11 11 11 11 12 14 15 16 16 16 18 20 23 25 27 27 25 23 22 23 25 26 28 31 35 38 41 43 44 44 44 44 45 45 45 45 47 49 51 54 56 58 59 59 61 64 68
20 20 20 20 21 21 22 22 23 23 24 23 23 23 23 22 21 21 21 22 22 21 20 18 17 17 17 15 11 9 7 6 5 6 8 9 11 11 11 10 11 11 12 13 15 15 16 16 16 17 19 22 25 26 25 22 21 22 23 24 25 26 29 33 37 40 43 45 46 46 47 47 47 47 47 48 49 50 52 55 57 59 60 61 64
19 19 19 20 20 21 21 21 22 22 23 23 23 23 22 21 20 19 19 19 20 20 19 18 17 16 16 15 12 9 6 6 7 8 10 10 10 10 10 10 10 10 11 11 12 13 14 15 15 14 14 16 19 22 22 22 22 22 22 22 22 23 24 28 32 37 41 43 45 46 47 47 48 49 49 49 49 49 50 51 53 56 58 60 61
17 17 18 18 19 19 19 19 20 20 20 20 20 20 20 20 20 19 19 19 19 19 18 18 18 16 15 15 13 10 8 8 9 9 10 11 11 12 12 11 10 9 9 9 10 10 11 11 12 12 11 11 13 16 18 20 21 22 22 22 22 21 21 22 25 29 34 38 41 43 45 47 48 49 49 49 50 50 51 51 52 53 55 57 59
15 16 16 16 17 17 17 17 17 18 18 18 18 18 18 18 19 20 21 21 21 20 19 18 17 16 15 14 13 12 11 11 11 11 11 11 12 12 11 10 10 9 8 8 8 9 9 9 9 9 8 8 10 12 14 16 18 19 20 22 22 22 21 21 22 23 26 29 34 38 42 45 47 47 48 49 49 50 50 51 51 52 52 53 54
14 14 14 14 14 14 15 15 14 15 16 17 18 18 18 18 18 19 20 22 22 21 20 19 17 15 14 13 12 12 12 12 13 12 12 11 11 11 11 11 11 11 10 9 7 7 8 9 9 9 8 9 10 11 13 15 16 17 18 18 19 19 19 20 20 21 22 24 26 29 33 36 39 41 44 46 48 48 50 51 51 51 51 51 52
13 13 13 13 12 12 13 13 13 13 14 16 17 17 18 18 19 19 19 21 22 21 21 20 18 16 13 11 11 11 11 11 11 11 11 11 12 12 13 13 13 12 12 11 9 7 6 7 7 7 7 8 8 9 11 13 15 16 17 18 19 19 20 20 20 21 21 22 23 24 26 28 30 33 36 39 42 44 46 47 48 48 49 50 51
14 14 13 13 13 12 13 13 14 14 14 15 16 17 18 19 21 22 23 23 22 21 20 20 19 17 14 10 10 10 10 9 9 10 10 11 11 12 12 13 13 12 12 13 11 7 4 4 4 4 4 5 5 6 7 8 10 12 14 16 17 18 19 20 20 21 21 22 23 24 25 26 27 29 31 34 37 40 41 42 43 44 45 47 48
16 16 16 16 15 15 14 15 15 15 16 16 17 18 19 20 22 24 26 27 26 23 21 19 19 18 15 11 8 8 8 7 7 8 8 9 10 11 11 12 12 12 13 13 13 10 6 2 1 2 3 3 3 4 5 6 7 9 9 10 12 12 13 14 16 17 19 21 22 24 25 25 26 26 28 29 32 34 37 38 39 40 41 42 44
18 18 18 18 18 18 18 18 18 18 18 19 19 20 21 22 24 25 27 28 26 23 20 18 18 18 17 12 8 6 6 7 7 7 7 8 9 10 10 10 10 11 12 12 13 12 9 6 4 3 3 3 1 1 2 3 4 4 5 5 6 7 7 8 10 12 14 16 18 20 22 23 23 23 23 23 25 27 30 32 34 36 37 38 39
21 20 19 19 20 20 21 21 21 21 21 22 23 23 24 25 26 27 28 28 25 22 19 17 17 17 17 14 8 5 5 6 6 6 6 7 9 9 9 9 9 9 9 10 11 11 11 9 6 5 5 5 4 2 1 1 1 2 3 3 4 4 4 4 4 5 7 9 11 14 16 17 18 17 16 16 17 19 20 22 24 26 29 31 32
24 23 22 21 20 21 21 22 22 23 23 24 25 25 26 26 27 28 27 26 23 20 18 16 16 16 16 14 9 4 3 4 4 4 5 7 8 9 9 9 9 9 8 9 9 9 10 10 9 7 5 4 4 3 2 2 1 1 1 2 2 2 2 3 3 4 5 7 9 11 13 14 14 13 13 13 13 13 13 14 14 16 18 20 22
24 24 23 23 22 22 21 22 22 22 23 24 24 25 25 26 26 26 25 23 21 19 18 17 17 15 15 13 8 4 3 3 4 3 3 5 7 8 9 10 10 9 9 8 8 8 8 8 8 7 6 4 3 3 2 3 3 3 3 3 3 3 3 3 3 4 5 6 8 9 10 10 10 10 10 10 10 11 11 11 12 13 14 16 17
24 24 23 23 23 23 23 22 22 22 22 22 22 23 23 23 23 23 22 21 19 19 19 19 17 14 13 10 5 5 4 3 3 2 2 4 5 7 9 10 10 11 11 11 10 9 8 6 5 5 4 4 3 2 2 2 3 3 3 4 5 5 6 6 6 7 7 8 8 8 8 8 8 8 8 9 10 11 12 12 13 14 15 15 16
25 25 24 24 24 24 24 24 23 23 23 22 22 21 21 21 21 20 19 18 18 18 19 19 16 13 10 7 3 6 6 5 4 3 3 3 4 6 8 9 11 12 13 13 13 12 10 8 6 4 2 2 2 3 3 3 3 3 3 4 5 6 7 8 8 9 9 9 10 10 9 9 9 9 10 10 11 11 12 12 13 14 14 15 15
27 26 25 25 25 24 24 25 24 24 23 23 22 21 20 19 19 18 17 16 17 17 18 17 14 12 9 5 3 7 8 7 6 5 4 4 5 6 7 8 10 12 13 14 14 14 13 11 8 6 3 2 1 2 3 3 3 3 3 4 4 5 6 7 8 8 9 9 10 10 10 11 11 11 11 11 11 12 12 12 12 12 12 12 12
28 27 27 26 25 25 25 24 24 24 24 23 22 21 20 18 17 16 15 15 16 16 16 15 13 11 10 5 3 7 9 9 8 8 7 7 7 7 8 9 10 12 13 15 15 15 14 13 10 8 5 3 2 1 1 2 3 4 4 4 4 5 5 6 6 7 8 8 8 9 9 9 9 9 9 9 10 10 10 10 10 10 10 10 10
28 28 28 28 27 26 26 25 24 24 24 24 23 21 19 17 16 14 13 14 15 14 14 12 11 10 10 8 4 5 8 10 10 10 10 9 9 10 10 11 11 13 14 15 16 15 14 12 10 8 6 4 3 2 1 1 2 4 5 5 5 5 5 5 6 6 6 6 6 7 7 7 7 7 7 8 8 8 8 8 9 9 9 10 11
28 28 29 29 28 28 27 26 24 23 22 22 22 21 19 16 14 12 12 13 14 13 12 11 10 9 9 9 7 4 6 9 11 12 12 12 12 12 13 13 14 15 15 15 14 13 11 9 8 6 5 4 3 2 1 1 2 3 4 4 4 5 5 6 6 6 7 7 7 7 7 7 8 8 8 8 8 8 9 9 10 10 10 11 11
27 28 28 28 29 29 28 27 25 23 21 20 20 19 17 14 11 10 11 12 12 12 11 10 8 7 7 7 8 7 5 4 7 10 12 13 14 14 15 15 15 14 13 11 10 8 7 6 5 4 4 3 2 1 0 1 2 3 3 3 3 3 4 5 5 6 6 7 7 6 6 6 6 7 7 7 8 8 9 9 9 10 10 10 10
26 27 27 28 28 29 29 28 27 24 21 19 19 17 15 12 10 9 10 11 12 11 10 9 8 6 5 5 5 5 5 4 3 3 5 8 10 11 11 11 10 9 8 7 6 5 5 4 3 3 2 2 2 2 2 2 3 3 2 2 3 3 3 3 4 4 5 5 5 5 5 5 6 6 7 7 8 9 9 9 9 9 9 9 9
28 27 26 27 27 27 28 28 27 25 22 19 18 16 13 10 8 8 10 11 11 11 10 9 8 6 5 4 4 3 3 3 2 2 2 3 4 5 6 6 6 6 5 5 5 4 4 3 3 3 4 4 4 4 4 4 4 4 3 3 3 3 4 4 5 5 5 5 5 6 6 6 7 7 8 9 9 9 9 9 9 9 9 10 10
31 29 27 26 26 26 27 27 27 26 23 19 17 15 12 9 8 8 9 11 11 11 10 9 8 7 6 6 5 5 4 3 2 2 2 3 3 4 4 5 5 5 5 5 5 5 5 4 4 5 5 5 5 5 4 4 4 4 4 4 4 5 5 6 6 6 7 7 7 7 7 7 8 8 8 9 9 9 9 10 10 11 11 11 12
30 30 29 28 26 25 25 25 26 26 24 21 16 13 11 9 8 9 10 11 12 11 10 9 9 8 7 7 7 7 7 6 6 5 4 4 5 5 6 6 6 6 6 6 6 6 5 5 5 5 5 5 5 5 5 5 5 5 6 6 7 7 7 7 8 8 8 8 8 8 8 8 8 8 9 9 9 10 11 11 12 12 13 13 13
30 29 29 28 27 25 24 24 24 24 24 21 17 13 11 9 9 10 10 12 13 13 12 10 10 9 9 8 8 8 8 9 8 7 7 6 6 6 7 7 7 7 7 7 6 6 6 6 6 6 6 6 7 7 7 8 8 8 8 8 8 9 9 9 9 9 9 9 9 9 9 9 9 9 9 10 10 11 12 12 13 13 14 15 15
32 30 28 27 26 25 24 22 22 22 22 21 18 14 11 10 10 11 12 13 14 15 14 13 11 11 10 10 10 10 10 10 9 9 8 8 7 7 7 7 7 7 7 7 8 8 8 8 9 9 9 9 9 9 10 10 10 10 10 10 10 10 10 10 10 10 10 10 10 10 10 10 10 10 11 11 12 12 13 14 14 15 16 17 18
Wind_Direction
318 314 308 303 298 292 287 283 278 273 269 265 262 260 260 260 260 259 255 251 248 246 246 247 248 250 252 253 253 254 255 256 258 262 262 258 253 250 247 247 247 246 246 245 243 241 240 239 237 235 233 232 230 228 227 228 228 228 228 229 230 230 230 230 229 228 227 227 228 229 231 233 235 234 233 235 238 238 237 237 237 237 238 237 236
322 318 314 309 304 299 294 290 285 280 275 271 267 262 257 254 255 256 255 252 249 247 245 244 245 248 250 251 251 251 251 253 256 259 261 259 255 251 248 247 247 245 244 244 242 241 240 239 238 237 235 233 232 230 229 228 228 227 227 228 229 230 230 230 230 229 229 228 229 230 231 233 235 236 235 235 238 239 238 237 237 239 240 239 238
324 322 317 311 306 301 296 291 286 282 278 273 269 265 259 253 251 252 252 250 248 247 245 244 244 246 248 249 249 248 248 250 253 256 258 257 255 253 250 248 246 245 244 243 243 242 241 240 239 238 237 235 234 232 230 230 229 229 228 228 228 229 230 230 230 230 230 230 230 230 231 233 234 237 237 237 238 240 240 239 239 241 241 240 239
326 323 319 315 310 305 300 295 289 284 280 276 271 266 261 256 250 249 249 247 246 247 246 246 246 247 248 248 246 246 248 250 251 252 253 254 254 253 251 248 244 241 240 241 242 241 241 240 240 239 239 237 235 234 232 231 231 231 230 229 229 228 229 230 230 230 230 230 230 230 231 233 234 236 237 238 239 240 242 242 241 241 240 239 240
328 325 322 318 315 310 306 300 293 287 281 277 272 267 262 257 251 247 245 244 242 244 247 248 248 248 247 245 243 244 247 248 248 249 250 251 252 251 250 246 240 237 236 237 239 241 241 241 240 240 239 238 236 235 234 233 232 232 232 231 230 229 229 229 229 230 230 230 230 230 230 231 233 234 235 237 238 239 240 242 243 242 239 238 238
329 327 325 323 321 318 314 307 298 289 282 276 270 266 262 257 250 245 243 242 239 239 242 244 244 245 243 240 239 242 244 245 245 246 248 250 250 250 248 244 239 237 236 236 238 239 239 239 239 240 240 239 238 236 235 233 233 233 233 233 232 231 230 230 230 230 230 230 230 230 230 230 231 232 233 235 235 236 237 239 241 242 241 239 237
333 331 331 330 328 326 323 317 309 298 287 278 269 263 259 255 250 244 240 239 236 233 236 239 240 241 238 235 236 239 241 243 243 243 245 248 250 249 247 244 240 238 236 236 237 238 238 238 238 238 239 239 239 238 237 235 234 233 233 234 234 233 232 232 231 230 230 230 230 230 230 230 230 231 232 233 234 235 236 236 238 240 241 241 239
337 337 336 335 334 334 334 331 326 317 304 289 274 262 254 250 248 243 238 237 234 231 234 238 238 235 232 231 233 236 239 242 244 243 244 247 249 249 248 245 241 238 236 235 236 237 237 238 238 238 238 237 238 239 239 238 236 234 234 234 234 234 234 233 232 232 231 231 230 230 230 231 231 231 231 232 234 235 236 237 237 239 240 241 240
342 342 342 341 341 343 343 342 339 336 328 311 288 267 253 246 242 239 237 235 231 229 232 235 234 233 232 232 233 236 241 246 249 248 247 248 249 248 247 243 239 237 236 236 237 238 238 238 237 237 237 236 237 238 240 240 239 237 235 234 234 234 234 234 233 233 233 232 231 231 230 231 232 232 232 232 233 234 236 236 237 237 237 239 239
348 348 349 350 350 351 353 356 358 358 355 346 325 288 254 240 234 233 233 229 223 224 229 233 234 235 235 235 237 240 245 249 251 251 250 249 249 249 247 243 238 236 237 238 239 239 238 237 237 236 236 237 237 238 239 240 240 239 237 236 235 234 234 234 234 234 233 233 233 232 231 231 231 233 233 234 234 234 234 235 236 236 236 237 237
353 355 358 359 359 1 5 12 17 20 23 24 26 31 147 204 212 216 214 211 212 218 226 232 235 236 236 236 237 240 243 247 250 250 250 250 250 249 247 243 238 236 237 239 239 238 237 236 236 236 237 237 238 239 239 240 240 240 239 239 238 237 235 234 233 233 233 233 233 233 233 232 232 232 233 234 234 234 234 235 236 236 237 236 236
358 1 4 6 8 10 15 21 28 34 40 48 56 66 82 106 138 165 181 191 202 213 223 229 233 235 237 237 239 241 245 249 251 251 251 250 250 249 247 242 238 236 237 238 237 235 235 234 234 235 236 237 238 238 239 240 240 240 240 241 241 240 238 236 234 233 233 233 233 233 234 233 232 232 233 234 235 235 235 236 236 237 237 238 237
2 6 8 10 14 18 21 26 32 38 45 52 60 68 78 90 109 134 161 184 201 215 226 233 238 240 242 244 244 246 248 251 252 252 251 251 251 250 248 243 239 236 236 236 236 235 235 234 233 234 235 236 237 238 238 240 241 241 240 241 242 241 241 239 237 235 234 233 233 232 233 234 233 233 233 233 235 236 236 236 237 237 237 238 238
7 9 11 14 17 21 24 28 33 38 44 50 55 62 71 80 94 115 149 185 207 223 233 239 242 244 246 248 249 250 251 252 252 252 253 253 253 252 249 245 241 238 236 235 235 235 236 235 234 234 235 236 237 238 239 240 242 243 242 242 243 242 242 241 239 237 235 234 233 232 232 232 233 233 233 233 234 235 236 236 237 237 237 236 236
8 11 14 17 21 23 26 28 32 36 41 46 50 54 57 61 65 71 81 207 240 247 248 249 250 249 249 250 250 250 249 249 249 249 251 253 253 252 250 247 244 240 238 236 234 234 235 236 235 235 235 237 238 240 240 241 243 245 244 243 243 243 243 242 239 237 235 234 233 233 232 231 231 231 231 232 233 234 235 236 236 236 236 236 235
8 11 15 19 22 25 29 31 33 36 39 42 46 49 50 50 48 45 38 19 333 292 276 270 265 261 259 258 256 255 253 251 251 250 250 251 252 251 249 247 245 242 240 239 237 235 235 234 234 235 235 237 238 240 240 241 243 246 246 245 245 244 245 244 241 237 234 232 231 232 232 232 231 230 230 230 231 232 233 233 234 235 236 236 236
15 17 21 23 23 25 29 34 37 38 39 40 41 43 45 45 43 38 32 22 4 338 310 293 281 273 269 266 263 262 261 260 259 258 256 255 253 252 249 246 244 243 242 241 240 239 237 236 236 235 235 236 238 239 239 240 242 244 245 246 245 244 244 245 244 240 236 232 229 229 230 230 230 231 231 230 231 232 233 234 234 235 235 236 236
23 25 26 27 28 30 34 39 44 45 46 45 45 45 47 47 46 43 40 36 28 16 359 337 315 295 282 273 268 265 263 263 263 262 261 259 255 253 250 246 242 240 240 240 240 240 239 239 238 238 238 238 239 239 240 240 240 242 243 244 244 242 241 243 243 241 240 237 230 226 225 225 225 227 229 231 231 231 232 234 236 236 235 235 235
28 31 34 36 38 42 45 47 50 51 51 51 51 50 50 50 49 47 45 42 37 32 25 17 6 352 333 310 289 277 270 266 264 263 262 261 258 254 251 247 244 240 240 240 240 240 240 240 240 240 239 239 239 240 240 240 239 240 241 242 242 240 239 241 241 240 240 240 236 228 224 222 222 222 224 227 230 231 230 229 232 235 235 235 235
36 39 41 42 44 46 47 48 48 49 48 48 47 45 44 42 41 40 39 36 33 29 25 20 16 11 6 1 354 337 314 294 281 273 266 261 257 253 250 248 246 244 242 242 242 242 243 243 242 242 240 239 239 240 240 240 239 239 240 240 240 239 239 239 240 240 238 238 239 235 228 224 223 223 223 224 226 229 231 230 228 229 232 233 234
40 41 41 41 42 43 44 43 42 41 40 38 37 36 35 34 35 35 33 31 28 24 20 16 10 4 360 358 360 1 360 356 350 332 306 280 263 255 251 249 249 249 248 247 246 246 246 245 244 243 241 239 239 239 240 241 240 239 239 239 238 237 237 237 237 238 238 236 236 236 234 231 229 228 228 228 226 226 230 231 228 227 229 231 231
37 36 36 38 39 40 39 38 36 34 32 30 30 30 30 31 31 29 28 26 22 17 15 13 9 1 353 343 338 337 340 341 342 342 338 329 312 293 281 274 268 266 262 259 257 255 253 250 247 245 243 240 239 239 240 242 243 242 241 242 241 239 237 236 236 236 237 237 235 235 235 235 234 233 231 231 230 228 228 229 227 227 230 231 230
32 32 33 35 35 35 34 32 31 29 28 28 27 28 29 28 25 24 24 22 16 11 11 13 13 10 3 349 331 320 318 320 322 324 322 313 305 301 299 297 292 286 281 276 271 267 265 261 256 251 247 243 241 241 241 244 246 247 246 246 246 244 241 238 237 236 236 236 236 235 235 235 235 235 234 233 232 232 232 231 229 228 230 232 232
30 30 31 31 31 30 29 28 28 28 28 28 27 26 26 24 22 22 23 20 13 9 11 15 17 16 14 9 356 335 326 325 324 321 313 296 287 287 288 290 290 289 286 283 280 277 274 270 265 259 253 248 245 244 244 246 248 249 249 248 248 248 245 242 240 239 238 237 236 235 235 235 234 234 234 233 233 233 234 234 233 232 231 232 233
29 29 29 29 29 28 28 29 30 30 30 28 26 24 23 22 20 20 19 17 13 11 13 18 22 24 22 19 17 10 358 347 333 319 304 287 284 289 289 287 284 284 283 281 279 277 277 276 273 267 258 251 247 244 244 245 247 248 249 249 249 249 248 246 244 242 240 239 238 237 236 235 234 233 232 232 232 233 234 235 236 235 234 233 233
29 30 30 29 28 27 27 28 30 32 32 30 27 25 23 20 18 16 13 12 11 12 16 18 22 26 27 23 20 18 12 2 341 319 307 302 303 305 302 292 284 280 280 279 276 274 275 280 281 273 261 252 246 242 240 241 244 245 245 245 246 246 246 245 244 244 243 241 240 238 237 236 235 234 233 232 231 231 232 234 235 236 237 236 236
30 31 31 30 28 27 26 26 27 28 28 27 26 24 22 19 17 14 11 10 9 10 13 13 14 21 26 25 22 21 13 359 340 323 316 313 314 315 311 300 289 284 282 282 281 277 274 279 286 280 265 251 243 240 238 237 238 241 244 245 245 244 243 242 241 240 240 240 239 239 238 237 236 236 235 235 234 232 232 233 234 234 235 237 237
29 30 30 29 28 27 26 25 25 25 23 20 18 17 16 16 18 19 17 14 11 9 8 6 5 11 20 23 22 22 9 345 333 329 327 328 331 332 328 318 304 294 290 288 287 285 278 276 280 283 273 256 243 237 235 234 236 239 242 245 247 246 244 242 239 237 236 236 237 238 238 238 237 236 236 236 236 236 235 235 235 235 235 236 237
24 24 24 24 25 25 24 24 25 26 24 20 16 13 11 11 12 15 16 16 15 11 9 6 3 3 10 16 17 15 5 351 347 349 351 352 352 348 342 336 324 311 302 291 283 283 284 277 274 277 276 263 246 236 234 236 239 241 243 245 246 247 245 242 239 237 234 233 233 235 236 237 237 237 237 237 236 236 237 236 236 236 236 236 236
15 16 17 18 19 21 22 23 23 23 22 21 19 17 15 12 10 8 8 9 10 8 7 5 2 359 2 7 8 6 4 2 3 6 8 5 357 349 344 342 338 329 317 300 279 272 274 273 268 268 268 260 248 242 241 244 246 248 248 248 248 246 244 241 240 238 235 232 231 231 232 235 236 237 238 238 237 237 237 237 237 237 237 237 237
2 5 6 8 10 12 14 16 16 15 15 14 12 11 11 10 10 9 7 4 3 2 1 360 358 355 355 358 0 359 359 1 3 4 4 1 354 349 349 351 352 346 337 325 303 278 267 266 263 261 261 256 249 245 245 246 246 245 244 244 244 242 241 241 240 240 238 236 234 234 234 234 236 236 237 237 237 237 237 237 238 238 238 238 238
345 348 350 352 354 357 359 360 0 1 3 4 2 0 359 358 359 1 2 2 359 357 355 353 351 349 347 349 354 355 354 354 356 356 355 355 354 352 352 356 358 358 355 350 337 311 283 271 264 260 261 261 258 256 254 251 250 249 247 247 247 248 249 249 248 245 243 241 239 238 237 237 237 238 238 238 237 236 235 236 236 237 237 237 238
328 330 331 334 335 337 340 342 342 344 345 346 347 348 348 347 346 347 349 352 353 352 349 346 344 343 341 340 345 352 355 354 352 351 350 351 354 353 353 357 2 6 10 11 8 357 325 285 266 262 265 262 255 255 259 260 259 257 255 254 254 253 253 251 249 247 245 243 241 240 239 239 240 241 241 241 239 238 236 236 236 236 236 237 237
319 317 317 318 320 321 323 325 326 328 329 330 332 335 337 339 338 337 339 342 344 344 343 339 337 337 337 334 332 345 358 356 349 348 349 348 349 352 356 1 7 11 14 19 24 27 25 15 316 294 292 283 266 254 252 255 256 255 254 255 255 253 249 244 241 240 239 239 239 239 239 238 238 240 241 240 239 238 237 236 237 237 238 238 238
324 318 313 310 309 310 312 314 315 318 319 321 323 325 328 330 331 331 333 336 338 338 336 332 329 330 333 332 324 331 351 354 347 346 346 341 344 354 1 7 11 14 16 20 26 31 37 44 41 16 10 23 25 282 239 230 231 232 233 235 237 237 235 233 230 231 232 233 234 235 235 234 234 235 235 234 232 231 231 232 233 234 235 236 236
333 329 323 316 310 307 306 307 308 310 313 315 316 319 321 322 324 325 328 332 335 335 332 327 323 322 326 327 318 309 333 348 349 345 341 341 348 359 7 10 12 14 17 19 23 29 37 42 40 30 36 57 75 88 113 147 162 173 176 177 175 171 170 170 174 183 192 201 207 211 212 211 210 209 208 208 209 211 214 217 221 224 226 228 230
332 332 331 327 322 316 312 309 308 309 310 311 312 314 316 318 320 322 326 330 333 333 330 326 321 317 316 316 307 286 302 334 344 342 338 344 356 3 5 7 10 14 20 22 21 24 32 40 43 41 47 70 90 93 86 83 87 99 119 131 134 139 151 155 150 147 150 155 159 163 166 166 166 168 170 173 176 179 184 190 198 204 208 211 214
332 331 329 328 327 324 321 319 317 316 315 315 315 316 317 317 319 322 327 331 334 334 333 331 325 317 311 307 292 243 242 305 322 325 335 345 356 2 3 3 7 12 18 19 19 20 25 33 39 44 52 72 94 103 102 97 92 91 94 99 104 110 118 131 143 149 152 153 151 150 150 150 153 159 167 172 177 181 185 190 194 194 194 194 194
336 333 330 328 327 326 326 325 324 324 324 325 326 326 324 322 323 327 330 333 336 339 340 338 331 323 315 307 277 211 209 264 287 285 316 341 352 359 360 359 3 8 10 9 10 13 18 22 32 44 56 71 88 106 120 121 117 119 120 121 122 125 127 129 132 137 141 144 145 147 149 151 154 164 172 179 186 190 192 195 196 195 193 192 192
339 336 334 332 330 329 328 327 326 326 327 328 330 331 330 329 330 331 331 334 339 343 345 343 339 336 331 319 257 205 212 237 255 263 278 306 331 346 351 351 353 356 358 357 358 359 1 7 16 30 54 83 109 125 133 137 137 135 134 132 130 132 135 135 135 135 137 138 138 139 142 144 149 156 162 167 172 176 178 182 185 187 188 188 189
341 339 337 335 333 330 328 327 326 326 325 325 327 328 330 331 332 331 332 335 341 346 348 347 347 350 351 342 218 204 216 230 243 258 271 282 299 314 324 332 338 342 342 344 346 346 347 349 352 360 17 45 118 154 159 160 155 151 151 146 139 137 140 139 138 140 141 142 144 145 147 150 153 155 157 160 162 164 168 171 175 178 181 184 187
341 342 341 340 337 334 331 327 326 325 324 323 323 324 326 329 331 331 332 335 339 345 351 353 355 1 3 354 238 214 221 231 242 253 264 273 283 294 303 311 319 325 328 331 333 334 336 337 336 338 348 3 20 89 155 167 161 155 155 154 150 150 150 149 149 151 150 150 151 152 152 153 155 156 159 162 165 168 173 177 179 183 187 192 198
338 340 342 343 342 340 337 332 327 324 323 323 323 323 325 327 328 328 329 332 336 343 350 355 0 8 10 2 328 247 237 241 245 251 257 265 273 281 290 297 303 308 313 318 321 324 328 330 330 331 334 339 348 10 48 119 147 151 153 155 159 161 161 160 160 158 156 157 158 158 158 161 166 169 172 175 178 181 186 190 195 200 204 208 213
333 335 338 340 341 342 341 338 332 326 322 321 322 323 324 324 322 321 324 329 333 339 346 351 359 9 12 9 1 329 273 256 253 253 256 262 269 273 278 285 291 297 303 307 312 317 321 324 326 327 329 330 335 350 32 84 116 128 131 137 146 151 154 157 159 159 159 162 165 167 170 174 178 182 185 187 192 196 199 203 208 211 214 217 221
325 328 331 334 337 339 340 340 337 330 324 321 321 323 323 320 315 314 320 326 329 332 337 342 349 0 8 9 9 5 348 303 273 263 261 263 266 270 274 280 286 292 298 302 307 313 316 315 315 318 320 321 323 330 89 120 129 127 124 128 140 151 158 162 164 166 169 173 176 180 184 188 192 196 201 205 209 212 215 217 220 223 226 230 234
319 319 323 327 330 333 336 339 340 335 328 322 322 323 321 315 309 307 313 320 322 322 326 329 334 343 352 356 357 2 6 6 347 303 276 268 268 270 274 279 284 289 293 296 300 305 304 299 293 290 282 265 248 234 218 200 193 192 195 199 201 202 205 208 206 203 201 200 200 204 210 216 220 225 228 231 233 234 235 235 237 238 239 240 240
322 316 315 318 322 327 330 334 338 338 333 325 323 323 319 307 299 302 309 314 316 315 315 316 318 322 326 325 323 326 336 350 359 352 319 288 280 277 276 278 282 284 285 285 284 282 279 271 266 261 256 249 248 248 243 234 230 230 231 230 227 225 225 225 223 222 222 222 225 229 233 236 240 242 245 246 245 245 245 243 241 239 236 234 233
327 322 317 314 315 320 324 328 334 337 336 329 323 320 315 299 286 292 304 310 310 309 308 307 304 304 305 305 301 296 291 288 292 297 292 289 287 285 284 285 285 284 284 280 275 271 269 266 264 262 260 259 258 256 252 246 241 236 233 232 230 229 229 230 231 233 236 238 241 243 245 248 250 251 251 250 248 245 242 238 235 234 233 233 236
328 326 323 319 315 315 319 323 328 333 334 332 325 317 308 293 279 283 297 306 306 304 302 301 297 292 289 290 289 288 285 280 276 273 273 274 276 277 278 278 279 280 279 276 272 269 266 264 263 263 263 262 261 260 258 257 253 250 246 244 241 239 240 242 244 247 249 249 250 250 250 251 251 249 247 244 242 239 237 236 237 239 241 245 250
332 327 324 322 319 315 314 316 321 326 330 330 325 316 304 291 279 280 290 300 303 301 299 297 293 287 280 276 275 276 277 276 274 273 271 271 273 275 277 278 280 282 282 281 279 277 274 271 270 268 266 265 265 264 264 263 261 259 256 252 249 249 250 252 254 255 254 252 251 250 250 249 248 246 245 243 242 242 243 246 248 252 256 259 263
338 334 328 323 321 318 314 312 313 318 324 326 324 315 303 291 281 280 286 294 300 302 301 298 294 289 282 274 268 264 263 262 262 262 263 264 266 267 270 274 277 279 280 282 282 281 280 279 277 275 272 270 269 267 266 265 263 260 257 254 253 253 254 255 255 255 253 252 251 250 250 250 250 250 250 250 251 253 255 257 260 263 266 268 270
Height
5266 5264 5263 5262 5261 5260 5259 5258 5258 5257 5258 5258 5258 5259 5260 5261 5262 5263 5265 5267 5269 5271 5274 5275 5277 5278 5279 5281 5283 5285 5287 5288 5289 5289 5291 5293 5295 5296 5298 5299 5302 5304 5306 5307 5310 5312 5316 5320 5325 5330 5335 5339 5346 5354 5362 5368 5376 5384 5392 5399 5406 5414 5423 5429 5439 5453 5460 5464 5471 5476 5480 5484 5488 5493 5499 5502 5506 5512 5517 5521 5525 5530 5534 5539 5543
5263 5261 5260 5258 5257 5256 5254 5253 5252 5252 5252 5252 5253 5253 5254 5255 5256 5258 5260 5262 5263 5265 5268 5270 5271 5273 5274 5276 5278 5281 5283 5284 5284 5285 5286 5288 5290 5291 5293 5295 5297 5300 5301 5303 5305 5307 5310 5314 5318 5322 5325 5329 5337 5344 5351 5357 5363 5371 5379 5386 5394 5402 5410 5417 5427 5439 5447 5452 5459 5465 5469 5473 5478 5483 5489 5494 5498 5502 5506 5511 5516 5521 5526 5530 5535
5260 5258 5257 5255 5253 5251 5250 5249 5247 5246 5246 5246 5246 5247 5248 5250 5251 5252 5254 5256 5258 5260 5262 5264 5266 5267 5269 5272 5274 5277 5278 5279 5280 5281 5282 5283 5285 5287 5288 5290 5293 5295 5297 5299 5301 5302 5305 5308 5311 5315 5317 5321 5328 5335 5341 5347 5353 5360 5367 5374 5382 5390 5398 5405 5414 5425 5433 5439 5446 5452 5457 5462 5467 5472 5478 5483 5486 5489 5493 5499 5505 5511 5517 5522 5526
5258 5256 5253 5251 5249 5247 5245 5243 5242 5241 5240 5240 5240 5241 5242 5244 5245 5247 5249 5251 5253 5255 5257 5258 5261 5263 5265 5268 5271 5273 5273 5274 5276 5276 5277 5279 5280 5282 5284 5286 5287 5289 5292 5294 5296 5298 5300 5303 5306 5309 5310 5314 5320 5326 5332 5338 5344 5350 5356 5363 5370 5378 5386 5392 5400 5411 5419 5425 5432 5439 5446 5450 5455 5461 5465 5470 5474 5478 5482 5487 5494 5501 5508 5513 5518
5256 5253 5251 5248 5245 5243 5241 5238 5236 5235 5234 5233 5234 5234 5236 5238 5240 5242 5244 5246 5248 5250 5252 5254 5257 5259 5262 5265 5267 5268 5269 5270 5271 5272 5273 5274 5276 5278 5279 5281 5283 5284 5286 5289 5291 5293 5296 5298 5301 5303 5304 5308 5313 5317 5323 5329 5335 5340 5346 5352 5359 5367 5374 5380 5387 5397 5405 5411 5418 5427 5433 5438 5443 5449 5454 5459 5464 5469 5473 5477 5483 5490 5497 5504 5509
5254 5251 5248 5245 5242 5239 5236 5233 5231 5229 5227 5227 5227 5228 5230 5232 5234 5236 5238 5241 5243 5246 5248 5250 5252 5255 5258 5260 5262 5263 5264 5266 5267 5268 5269 5270 5272 5273 5275 5276 5278 5280 5282 5284 5286 5288 5291 5293 5295 5297 5300 5303 5307 5311 5314 5320 5325 5331 5336 5342 5349 5356 5362 5368 5375 5384 5391 5398 5405 5413 5420 5425 5432 5437 5443 5448 5453 5458 5464 5468 5473 5479 5486 5494 5500
5252 5249 5245 5242 5239 5236 5232 5229 5225 5223 5221 5221 5221 5223 5225 5227 5229 5231 5233 5236 5239 5241 5243 5245 5248 5251 5254 5256 5257 5259 5260 5262 5263 5264 5265 5266 5268 5269 5271 5272 5274 5276 5278 5280 5281 5283 5286 5288 5290 5292 5295 5299 5302 5304 5308 5312 5317 5322 5327 5332 5338 5345 5351 5357 5364 5371 5378 5385 5392 5400 5407 5413 5419 5425 5431 5436 5440 5445 5451 5458 5464 5471 5477 5483 5489
5250 5247 5243 5240 5237 5233 5229 5225 5222 5219 5217 5216 5216 5217 5220 5223 5225 5227 5230 5232 5235 5238 5240 5242 5245 5247 5250 5251 5253 5254 5256 5258 5259 5260 5261 5262 5264 5265 5267 5268 5270 5272 5274 5276 5277 5279 5281 5283 5286 5288 5291 5294 5297 5299 5302 5306 5309 5314 5319 5323 5328 5334 5340 5347 5353 5359 5366 5372 5378 5386 5395 5400 5405 5412 5418 5422 5428 5436 5444 5450 5457 5462 5466 5471 5476
5249 5245 5242 5239 5235 5231 5227 5223 5220 5217 5214 5213 5213 5214 5216 5219 5222 5225 5227 5230 5233 5235 5238 5240 5242 5244 5246 5248 5250 5251 5253 5255 5256 5257 5258 5259 5260 5262 5263 5265 5267 5268 5270 5272 5273 5275 5277 5280 5282 5284 5287 5289 5292 5294 5297 5300 5304 5308 5312 5315 5319 5324 5330 5336 5342 5348 5354 5360 5366 5373 5381 5387 5393 5400 5406 5412 5421 5430 5435 5439 5443 5449 5454 5458 5464
5248 5245 5242 5238 5235 5231 5228 5224 5220 5217 5214 5213 5212 5213 5215 5217 5220 5223 5225 5228 5231 5234 5236 5238 5240 5242 5244 5246 5248 5250 5251 5252 5253 5254 5255 5256 5257 5258 5260 5261 5263 5265 5267 5268 5270 5272 5274 5276 5278 5280 5283 5285 5288 5290 5293 5295 5298 5302 5305 5308 5311 5316 5320 5325 5330 5336 5342 5348 5353 5360 5368 5375 5383 5390 5397 5405 5413 5417 5420 5425 5430 5436 5441 5447 5454
5248 5245 5242 5239 5236 5232 5229 5225 5222 5219 5217 5215 5214 5215 5216 5218 5220 5222 5225 5227 5230 5232 5235 5236 5238 5240 5242 5244 5245 5247 5248 5248 5249 5250 5251 5252 5254 5255 5256 5258 5260 5262 5263 5265 5267 5269 5270 5272 5274 5276 5279 5281 5284 5286 5288 5291 5293 5296 5299 5302 5304 5308 5312 5316 5320 5325 5331 5336 5342 5348 5356 5364 5373 5380 5387 5393 5398 5402 5408 5413 5418 5423 5429 5436 5444
5249 5246 5243 5240 5237 5234 5231 5228 5225 5222 5220 5219 5218 5218 5219 5220 5221 5223 5225 5227 5229 5231 5233 5235 5237 5238 5239 5241 5242 5243 5245 5245 5246 5247 5248 5249 5250 5252 5253 5255 5256 5258 5260 5262 5264 5265 5267 5269 5271 5273 5275 5277 5279 5282 5284 5286 5288 5291 5293 5295 5297 5300 5304 5307 5312 5316 5320 5325 5330 5337 5345 5353 5361 5369 5375 5381 5385 5390 5396 5400 5404 5411 5418 5425 5432
5249 5247 5244 5241 5238 5235 5233 5230 5228 5226 5224 5222 5222 5222 5222 5223 5224 5225 5227 5228 5230 5231 5233 5234 5235 5236 5237 5239 5240 5241 5242 5243 5244 5245 5246 5246 5247 5249 5250 5251 5253 5255 5257 5259 5261 5262 5264 5265 5267 5269 5271 5273 5275 5277 5280 5282 5283 5286 5288 5289 5291 5294 5297 5300 5304 5307 5311 5315 5320 5327 5335 5342 5349 5357 5364 5370 5373 5376 5381 5387 5393 5400 5407 5413 5420
5251 5248 5245 5243 5240 5237 5235 5233 5231 5229 5227 5226 5225 5225 5225 5225 5226 5227 5228 5229 5230 5231 5232 5233 5234 5235 5236 5237 5238 5239 5240 5241 5242 5242 5243 5244 5244 5246 5247 5248 5250 5252 5254 5255 5257 5259 5260 5262 5264 5266 5268 5269 5272 5274 5276 5278 5279 5281 5283 5284 5285 5288 5290 5293 5296 5299 5303 5307 5312 5318 5325 5330 5337 5345 5351 5356 5360 5364 5370 5376 5382 5387 5393 5399 5406
5252 5249 5247 5244 5242 5239 5237 5235 5234 5232 5230 5229 5228 5228 5228 5228 5228 5229 5229 5230 5230 5231 5232 5232 5233 5234 5234 5235 5235 5236 5237 5237 5238 5239 5240 5241 5241 5242 5244 5245 5247 5249 5250 5252 5253 5255 5257 5258 5260 5262 5264 5266 5268 5270 5272 5273 5275 5276 5278 5279 5280 5282 5284 5286 5288 5291 5295 5300 5304 5309 5314 5319 5326 5332 5337 5342 5348 5353 5359 5364 5368 5372 5378 5385 5391
5253 5251 5248 5246 5244 5242 5240 5238 5236 5235 5233 5232 5231 5231 5230 5230 5230 5230 5230 5231 5231 5231 5231 5232 5232 5233 5233 5233 5234 5234 5234 5235 5235 5236 5237 5237 5238 5239 5241 5242 5244 5245 5247 5249 5250 5252 5253 5255 5257 5259 5260 5262 5264 5266 5267 5269 5271 5272 5274 5275 5276 5278 5280 5281 5282 5285 5288 5292 5297 5301 5306 5310 5315 5321 5326 5331 5337 5341 5346 5351 5355 5361 5368 5374 5381
5255 5253 5250 5248 5246 5244 5242 5240 5239 5237 5236 5235 5234 5233 5233 5232 5232 5232 5232 5232 5232 5232 5232 5232 5232 5232 5232 5232 5232 5232 5232 5233 5233 5233 5234 5235 5235 5236 5237 5239 5240 5241 5243 5245 5246 5248 5249 5251 5253 5254 5256 5258 5260 5261 5263 5265 5266 5268 5270 5271 5272 5274 5275 5276 5277 5280 5282 5285 5289 5294 5298 5303 5308 5313 5318 5323 5327 5331 5336 5342 5347 5353 5359 5365 5371
5257 5255 5253 5251 5249 5247 5245 5243 5241 5240 5239 5238 5237 5236 5235 5235 5234 5234 5233 5233 5233 5232 5232 5232 5232 5231 5231 5231 5231 5230 5231 5231 5231 5231 5232 5232 5233 5233 5234 5236 5237 5238 5239 5240 5242 5243 5245 5247 5248 5250 5252 5254 5256 5257 5258 5260 5262 5264 5266 5267 5268 5270 5271 5272 5273 5275 5277 5280 5283 5288 5293 5297 5302 5306 5311 5315 5320 5325 5331 5336 5340 5344 5350 5356 5362
5260 5258 5256 5254 5252 5250 5248 5246 5245 5243 5242 5241 5240 5240 5239 5238 5237 5236 5236 5235 5234 5234 5233 5233 5232 5231 5231 5230 5230 5230 5229 5229 5229 5229 5229 5230 5230 5231 5232 5233 5234 5235 5235 5236 5238 5239 5240 5242 5244 5246 5248 5250 5251 5252 5254 5256 5258 5260 5262 5263 5265 5267 5267 5268 5269 5271 5273 5276 5279 5282 5287 5292 5296 5300 5304 5308 5314 5319 5324 5329 5333 5337 5343 5348 5353
5263 5261 5259 5258 5256 5254 5252 5250 5249 5247 5246 5245 5244 5243 5242 5241 5240 5239 5238 5237 5236 5236 5235 5234 5233 5232 5231 5231 5230 5230 5229 5229 5228 5228 5228 5228 5229 5229 5230 5230 5231 5232 5233 5234 5235 5235 5237 5238 5239 5241 5243 5245 5246 5248 5249 5251 5254 5256 5257 5259 5261 5263 5263 5264 5265 5267 5269 5272 5274 5278 5281 5286 5290 5294 5298 5302 5307 5312 5317 5321 5327 5332 5336 5341 5346
5266 5264 5263 5261 5259 5258 5256 5254 5253 5251 5250 5249 5247 5246 5245 5243 5242 5241 5240 5239 5238 5237 5236 5235 5234 5233 5232 5231 5230 5230 5229 5229 5228 5228 5228 5228 5228 5228 5228 5229 5229 5230 5231 5232 5232 5233 5234 5234 5235 5237 5239 5240 5242 5243 5245 5246 5248 5250 5252 5255 5257 5258 5258 5260 5262 5263 5265 5267 5270 5273 5277 5280 5285 5289 5293 5298 5302 5307 5310 5315 5320 5325 5328 5333 5339
5270 5268 5266 5264 5263 5261 5259 5257 5256 5254 5253 5251 5250 5248 5247 5246 5244 5243 5242 5240 5239 5238 5237 5235 5234 5233 5232 5231 5231 5230 5230 5229 5229 5229 5228 5228 5228 5228 5228 5228 5229 5229 5230 5230 5230 5231 5231 5232 5233 5233 5235 5236 5238 5239 5241 5242 5243 5246 5248 5250 5251 5252 5254 5256 5258 5259 5261 5263 5266 5268 5272 5275 5280 5284 5288 5292 5296 5300 5303 5308 5312 5316 5320 5326 5331
5273 5271 5269 5267 5266 5264 5262 5260 5259 5257 5255 5254 5252 5251 5249 5248 5246 5245 5243 5241 5240 5239 5238 5236 5235 5233 5232 5231 5230 5230 5229 5229 5229 5229 5229 5228 5228 5228 5228 5228 5228 5228 5229 5229 5229 5229 5229 5230 5230 5231 5232 5233 5234 5235 5237 5238 5239 5242 5244 5246 5246 5247 5250 5252 5254 5255 5257 5259 5262 5265 5268 5271 5275 5279 5283 5287 5290 5293 5296 5300 5304 5308 5312 5318 5323
5276 5274 5272 5270 5268 5266 5265 5263 5262 5260 5258 5256 5254 5253 5251 5250 5248 5246 5244 5243 5242 5241 5239 5237 5235 5234 5232 5231 5230 5230 5229 5229 5229 5229 5229 5228 5228 5228 5228 5228 5227 5227 5227 5227 5227 5227 5227 5227 5228 5228 5229 5230 5231 5232 5233 5235 5236 5238 5240 5241 5241 5242 5245 5248 5249 5251 5253 5255 5258 5261 5264 5267 5270 5273 5277 5280 5283 5286 5289 5293 5297 5301 5305 5310 5315
5279 5277 5275 5273 5271 5269 5268 5266 5264 5262 5260 5258 5257 5255 5254 5252 5250 5248 5246 5245 5244 5242 5240 5239 5237 5235 5233 5232 5231 5230 5230 5229 5229 5229 5229 5228 5228 5228 5227 5227 5226 5226 5226 5225 5225 5225 5225 5225 5225 5225 5226 5226 5228 5229 5230 5231 5233 5234 5235 5236 5237 5238 5240 5243 5244 5246 5249 5252 5255 5258 5260 5263 5265 5268 5271 5274 5277 5280 5283 5287 5290 5295 5299 5303 5307
5282 5280 5278 5276 5274 5272 5270 5268 5266 5264 5263 5261 5259 5257 5255 5253 5251 5249 5248 5246 5245 5243 5242 5240 5238 5236 5234 5233 5232 5231 5230 5230 5230 5229 5229 5228 5228 5227 5226 5225 5225 5224 5224 5223 5223 5222 5222 5222 5221 5221 5221 5222 5224 5225 5227 5228 5229 5230 5231 5231 5233 5234 5235 5237 5239 5241 5244 5247 5250 5252 5255 5258 5260 5263 5265 5268 5271 5274 5277 5280 5284 5288 5292 5296 5299
5285 5282 5280 5278 5276 5274 5272 5270 5268 5266 5264 5263 5261 5259 5257 5255 5253 5252 5250 5248 5246 5244 5242 5241 5239 5237 5235 5234 5233 5232 5231 5231 5230 5229 5229 5228 5227 5226 5225 5224 5223 5223 5222 5221 5220 5220 5219 5219 5218 5218 5217 5218 5219 5221 5223 5225 5226 5227 5227 5228 5229 5230 5231 5232 5234 5236 5238 5241 5243 5246 5249 5252 5254 5257 5260 5262 5265 5268 5271 5274 5277 5281 5285 5289 5292
5287 5285 5282 5280 5278 5276 5274 5272 5270 5269 5267 5265 5263 5261 5259 5257 5256 5254 5252 5250 5248 5246 5244 5242 5240 5239 5237 5235 5234 5233 5232 5231 5230 5229 5228 5227 5226 5225 5224 5223 5222 5221 5220 5220 5219 5218 5217 5216 5216 5215 5214 5215 5216 5218 5220 5222 5223 5224 5224 5225 5226 5226 5227 5227 5228 5230 5232 5234 5237 5240 5243 5246 5248 5251 5254 5257 5260 5263 5266 5268 5271 5275 5279 5282 5286
5289 5286 5284 5282 5280 5278 5276 5274 5272 5271 5269 5267 5265 5263 5261 5259 5257 5256 5254 5252 5250 5248 5246 5243 5241 5240 5238 5237 5236 5234 5233 5232 5231 5230 5228 5227 5226 5225 5223 5222 5221 5220 5219 5218 5217 5216 5215 5215 5214 5214 5213 5213 5214 5215 5217 5219 5220 5221 5221 5222 5223 5223 5224 5224 5225 5225 5227 5229 5231 5234 5237 5239 5242 5245 5248 5251 5254 5257 5260 5263 5266 5269 5272 5276 5280
5290 5288 5286 5284 5282 5279 5278 5276 5274 5272 5270 5269 5267 5265 5263 5261 5259 5257 5255 5253 5251 5249 5247 5245 5243 5241 5239 5238 5237 5235 5234 5233 5231 5230 5229 5227 5226 5225 5223 5222 5220 5219 5218 5217 5216 5215 5214 5214 5213 5213 5212 5212 5213 5214 5215 5216 5217 5218 5218 5219 5220 5220 5221 5222 5222 5223 5224 5225 5227 5229 5231 5234 5237 5240 5243 5245 5248 5251 5254 5257 5260 5263 5266 5270 5273
5291 5289 5287 5285 5283 5281 5279 5277 5275 5273 5271 5269 5268 5266 5264 5262 5260 5258 5256 5254 5251 5249 5247 5245 5243 5242 5240 5239 5237 5236 5235 5233 5232 5230 5229 5228 5226 5225 5223 5222 5221 5219 5218 5216 5215 5214 5213 5213 5212 5212 5212 5212 5212 5213 5214 5214 5215 5216 5216 5217 5217 5218 5218 5219 5220 5221 5222 5223 5224 5226 5228 5230 5232 5235 5237 5239 5242 5245 5248 5251 5254 5257 5261 5264 5267
5291 5289 5287 5285 5283 5281 5279 5277 5276 5274 5272 5270 5268 5266 5264 5262 5260 5258 5257 5255 5252 5250 5248 5245 5243 5242 5240 5239 5237 5236 5235 5234 5232 5231 5230 5228 5227 5225 5224 5222 5221 5220 5218 5216 5214 5213 5212 5212 5212 5211 5211 5211 5211 5212 5212 5213 5213 5214 5214 5215 5215 5216 5216 5217 5218 5218 5219 5220 5222 5223 5225 5227 5228 5230 5232 5234 5237 5240 5242 5245 5248 5252 5254 5257 5260
5291 5289 5287 5285 5283 5281 5279 5277 5276 5274 5272 5270 5268 5266 5264 5262 5260 5258 5256 5254 5252 5250 5248 5245 5243 5241 5240 5239 5237 5236 5235 5234 5233 5231 5230 5229 5227 5226 5224 5223 5221 5220 5218 5216 5214 5213 5212 5211 5211 5211 5211 5211 5211 5211 5211 5211 5212 5212 5212 5212 5213 5213 5214 5214 5215 5216 5217 5218 5219 5220 5222 5223 5225 5227 5228 5230 5232 5234 5237 5240 5243 5246 5248 5251 5254
5290 5288 5286 5284 5282 5280 5279 5277 5275 5273 5271 5269 5267 5266 5264 5262 5260 5258 5255 5253 5251 5249 5247 5245 5242 5240 5239 5238 5237 5236 5235 5234 5233 5231 5230 5229 5227 5226 5225 5223 5222 5220 5218 5217 5215 5214 5213 5212 5212 5211 5211 5211 5210 5210 5210 5210 5210 5210 5210 5210 5210 5211 5211 5211 5212 5213 5214 5215 5216 5217 5219 5220 5222 5223 5224 5226 5227 5229 5232 5235 5238 5240 5243 5246 5248
5289 5287 5285 5283 5281 5279 5277 5275 5274 5272 5270 5268 5266 5264 5263 5261 5259 5257 5254 5252 5250 5248 5245 5243 5241 5239 5238 5237 5236 5235 5235 5234 5233 5231 5230 5229 5227 5226 5225 5224 5222 5221 5220 5218 5217 5216 5214 5213 5213 5212 5212 5211 5211 5210 5210 5210 5210 5210 5209 5209 5209 5209 5209 5210 5210 5210 5211 5212 5213 5214 5216 5217 5218 5220 5221 5222 5224 5225 5228 5230 5233 5235 5238 5240 5243
5288 5286 5283 5281 5279 5277 5276 5274 5272 5270 5269 5267 5265 5263 5261 5259 5257 5255 5253 5251 5249 5246 5244 5242 5240 5238 5237 5236 5235 5235 5234 5233 5232 5231 5230 5229 5228 5227 5226 5224 5223 5222 5221 5220 5219 5217 5216 5215 5214 5213 5213 5213 5212 5211 5211 5211 5211 5210 5210 5210 5210 5210 5210 5210 5210 5210 5211 5211 5211 5212 5213 5215 5216 5217 5219 5220 5221 5223 5225 5227 5229 5231 5233 5236 5238
5286 5284 5282 5280 5278 5276 5274 5272 5270 5268 5267 5265 5263 5261 5259 5257 5255 5253 5251 5249 5247 5245 5243 5241 5239 5237 5235 5234 5234 5234 5233 5233 5232 5231 5230 5229 5228 5227 5226 5225 5224 5223 5222 5221 5220 5219 5218 5217 5216 5215 5214 5214 5213 5213 5212 5212 5212 5212 5211 5211 5211 5211 5211 5211 5212 5212 5212 5212 5213 5213 5214 5215 5216 5217 5218 5220 5221 5222 5224 5226 5228 5230 5231 5233 5235
5285 5283 5281 5278 5276 5274 5272 5270 5268 5267 5265 5263 5261 5259 5257 5255 5253 5251 5249 5247 5245 5243 5241 5239 5237 5235 5234 5233 5232 5232 5233 5232 5232 5231 5230 5230 5229 5228 5227 5226 5225 5224 5223 5222 5221 5220 5219 5218 5217 5216 5216 5215 5214 5214 5213 5213 5213 5213 5212 5212 5212 5212 5212 5212 5212 5213 5213 5214 5215 5215 5216 5216 5217 5218 5219 5220 5222 5223 5224 5226 5228 5229 5231 5233 5235
5285 5282 5280 5277 5275 5273 5271 5269 5267 5265 5263 5261 5259 5257 5255 5253 5251 5249 5248 5246 5244 5242 5240 5238 5235 5233 5232 5231 5231 5231 5232 5232 5231 5231 5231 5230 5229 5228 5228 5227 5226 5224 5223 5222 5221 5221 5220 5219 5219 5218 5217 5216 5216 5215 5215 5214 5214 5213 5213 5213 5213 5213 5213 5213 5213 5214 5214 5215 5215 5216 5217 5217 5218 5219 5220 5221 5222 5224 5225 5226 5228 5230 5231 5233 5235
5284 5281 5278 5276 5274 5271 5269 5267 5265 5263 5261 5259 5257 5255 5254 5252 5250 5248 5246 5245 5243 5241 5239 5236 5234 5232 5231 5230 5230 5231 5231 5231 5230 5230 5230 5230 5229 5229 5228 5227 5226 5225 5224 5223 5222 5221 5220 5219 5219 5219 5218 5217 5217 5216 5216 5215 5215 5214 5214 5214 5214 5214 5214 5215 5215 5215 5215 5216 5216 5217 5217 5218 5219 5219 5221 5222 5223 5224 5226 5227 5228 5230 5231 5233 5235
5283 5280 5277 5275 5272 5270 5268 5265 5263 5261 5259 5257 5255 5254 5252 5250 5249 5247 5245 5244 5242 5240 5238 5236 5234 5232 5230 5230 5230 5230 5230 5230 5230 5230 5230 5230 5229 5229 5228 5227 5227 5226 5225 5224 5223 5222 5221 5220 5219 5219 5218 5218 5217 5217 5216 5216 5216 5216 5215 5215 5215 5215 5215 5216 5216 5216 5216 5217 5217 5218 5218 5219 5220 5221 5222 5223 5224 5225 5226 5227 5228 5230 5232 5233 5235
5282 5279 5276 5273 5271 5268 5266 5264 5262 5260 5258 5256 5254 5252 5251 5249 5247 5246 5244 5243 5241 5240 5238 5236 5234 5232 5231 5230 5229 5229 5229 5229 5230 5229 5229 5229 5229 5228 5228 5227 5227 5226 5225 5224 5223 5222 5221 5220 5219 5219 5218 5218 5217 5217 5217 5217 5216 5216 5216 5216 5216 5216 5216 5216 5216 5217 5217 5218 5218 5219 5219 5220 5221 5221 5222 5223 5224 5225 5226 5227 5228 5230 5231 5233 5234
5281 5278 5275 5272 5269 5267 5264 5262 5260 5258 5256 5254 5252 5251 5249 5248 5246 5245 5243 5242 5241 5239 5238 5236 5234 5232 5231 5230 5230 5229 5229 5229 5229 5229 5229 5228 5228 5228 5227 5227 5226 5226 5225 5224 5223 5222 5221 5220 5219 5219 5218 5218 5218 5217 5217 5217 5217 5217 5217 5217 5217 5217 5217 5217 5217 5217 5218 5218 5219 5219 5220 5220 5221 5221 5222 5223 5224 5225 5226 5227 5228 5229 5230 5232 5233
5279 5277 5274 5271 5268 5266 5263 5261 5258 5256 5254 5252 5250 5249 5248 5246 5245 5244 5242 5241 5240 5239 5237 5236 5234 5232 5231 5230 5229 5229 5228 5228 5228 5228 5228 5228 5227 5227 5226 5226 5226 5225 5224 5223 5223 5222 5221 5220 5219 5219 5218 5218 5218 5218 5217 5217 5217 5217 5217 5217 5217 5217 5217 5218 5218 5218 5218 5219 5219 5219 5220 5220 5221 5222 5222 5223 5224 5224 5225 5226 5227 5228 5230 5231 5232
5277 5275 5272 5270 5267 5264 5262 5259 5257 5255 5253 5251 5249 5248 5246 5245 5244 5243 5242 5240 5239 5238 5237 5235 5234 5232 5231 5230 5229 5228 5228 5227 5227 5226 5226 5226 5226 5225 5225 5225 5224 5224 5223 5222 5222 5221 5220 5220 5219 5219 5218 5218 5218 5218 5217 5217 5217 5217 5217 5217 5217 5218 5218 5218 5218 5218 5219 5219 5219 5220 5220 5220 5221 5222 5222 5223 5224 5224 5225 5226 5227 5228 5229 5230 5231
5275 5273 5270 5268 5266 5263 5261 5258 5255 5253 5251 5249 5248 5246 5245 5244 5243 5242 5241 5239 5238 5237 5236 5235 5233 5232 5231 5230 5229 5228 5228 5227 5226 5225 5225 5225 5224 5224 5224 5223 5223 5222 5222 5221 5221 5221 5220 5220 5219 5219 5219 5218 5218 5218 5218 5218 5217 5217 5217 5217 5217 5217 5218 5218 5218 5218 5219 5219 5219 5219 5220 5220 5221 5221 5222 5223 5223 5224 5224 5225 5226 5227 5228 5229 5230
5273 5271 5268 5266 5264 5262 5259 5257 5254 5252 5249 5248 5246 5245 5244 5242 5241 5241 5240 5239 5237 5236 5235 5234 5233 5232 5231 5230 5229 5228 5227 5227 5226 5225 5224 5224 5223 5223 5223 5222 5222 5221 5221 5221 5220 5220 5220 5219 5219 5219 5219 5218 5218 5218 5218 5218 5218 5217 5217 5217 5217 5217 5218 5218 5218 5218 5218 5219 5219 5219 5219 5220 5220 5221 5221 5222 5222 5223 5223 5224 5225 5225 5226 5227 5228
5270 5268 5266 5264 5261 5259 5257 5255 5253 5250 5248 5246 5245 5243 5242 5241 5240 5239 5239 5238 5236 5235 5234 5233 5232 5231 5230 5229 5228 5228 5227 5226 5225 5225 5224 5224 5223 5223 5222 5222 5221 5221 5220 5220 5220 5220 5219 5219 5219 5218 5218 5218 5218 5218 5217 5217 5217 5217 5217 5217 5217 5217 5217 5217 5218 5218 5218 5218 5218 5218 5219 5219 5219 5220 5220 5221 5221 5222 5222 5223 5223 5224 5224 5225 5226
5269 5266 5263 5261 5259 5257 5255 5253 5251 5249 5246 5244 5243 5242 5241 5240 5239 5238 5237 5236 5235 5234 5232 5231 5230 5229 5229 5228 5227 5227 5226 5226 5225 5224 5224 5223 5223 5222 5222 5221 5221 5220 5220 5219 5219 5219 5218 5218 5218 5217 5217 5217 5217 5217 5217 5216 5216 5216 5216 5216 5217 5217 5217 5217 5217 5217 5217 5217 5218 5218 5218 5218 5218 5219 5219 5219 5220 5220 5221 5221 5222 5222 5222 5223 5223
5267 5264 5262 5259 5257 5255 5253 5251 5249 5247 5245 5243 5241 5240 5239 5238 5238 5237 5236 5235 5234 5232 5231 5230 5229 5228 5227 5226 5226 5225 5225 5224 5224 5223 5223 5222 5222 5222 5221 5221 5220 5219 5219 5219 5218 5218 5217 5217 5217 5217 5216 5216 5216 5216 5216 5216 5216 5215 5216 5216 5216 5216 5216 5216 5216 5216 5216 5216 5216 5217 5217 5217 5217 5217 5218 5218 5218 5218 5219 5219 5219 5219 5220 5220 5220
5266 5263 5260 5257 5255 5252 5250 5249 5247 5245 5244 5242 5240 5239 5237 5237 5236 5235 5234 5234 5233 5231 5230 5229 5228 5226 5226 5225 5224 5223 5223 5223 5222 5222 5222 5221 5221 5220 5220 5220 5219 5219 5218 5218 5217 5217 5216 5216 5216 5216 5215 5215 5215 5215 5215 5214 5214 5214 5214 5214 5214 5214 5214 5215 5215 5215 5215 5215 5215 5215 5215 5215 5215 5215 5215 5216 5216 5216 5216 5216 5216 5216 5216 5217 5217